| time (UTC) | temp C | wind direction | speed KPH | gust KPH | rain 1hr cm | rain 24hr cm | rain mn cm | humidity % | barometer mb |
| 20260506233114 | 10 | 60 | 0.0 | 0.0 | 0.13 | 0.18 | 0.13 | 85 | 1009.4 |
| 20260506232114 | 10 | 60 | 0.0 | 0.0 | 0.10 | 0.15 | 0.10 | 84 | 1009.4 |
| 20260506231114 | 10 | 60 | 0.0 | 0.0 | 0.05 | 0.10 | 0.05 | 84 | 1009.3 |
| 20260506230114 | 10 | 60 | 0.0 | 0.0 | 0.03 | 0.08 | 0.03 | 84 | 1009.3 |
| 20260506225116 | 10 | 60 | 0.0 | 0.0 | 0.00 | 0.05 | 0.00 | 84 | 1009.1 |
| 20260506224114 | 10 | 60 | 0.0 | 0.0 | 0.00 | 0.05 | 0.00 | 84 | 1009.1 |
| 20260506223113 | 10 | 60 | 0.0 | 0.0 | 0.00 | 0.05 | 0.00 | 83 | 1009.0 |
| 20260506222114 | 10 | 61 | 0.0 | 0.0 | 0.00 | 0.05 | 0.00 | 83 | 1009.0 |
| 20260506221113 | 10 | 60 | 0.0 | 0.0 | 0.00 | 0.05 | 0.00 | 83 | 1009.0 |
| 20260506220113 | 10 | 60 | 0.0 | 0.0 | 0.00 | 0.05 | 0.00 | 83 | 1008.9 |
| 20260506215113 | 10 | 61 | 0.0 | 0.0 | 0.00 | 0.05 | 0.05 | 83 | 1008.8 |
| 20260506214113 | 10 | 60 | 0.0 | 0.0 | 0.00 | 0.05 | 0.05 | 83 | 1008.7 |
| 20260506213113 | 10 | 60 | 0.0 | 0.0 | 0.00 | 0.05 | 0.05 | 82 | 1008.6 |
| 20260506212113 | 10 | 60 | 0.0 | 0.0 | 0.00 | 0.05 | 0.05 | 82 | 1008.7 |
| 20260506211113 | 10 | 60 | 0.0 | 0.0 | 0.00 | 0.05 | 0.05 | 82 | 1008.6 |
| 20260506210113 | 10 | 60 | 0.0 | 0.0 | 0.00 | 0.05 | 0.05 | 82 | 1008.6 |
| 20260506205113 | 10 | 60 | 0.0 | 0.0 | 0.00 | 0.05 | 0.05 | 82 | 1008.5 |
| 20260506204113 | 10 | 60 | 0.0 | 0.0 | 0.00 | 0.05 | 0.05 | 81 | 1008.6 |
| 20260506203113 | 11 | 60 | 0.0 | 0.0 | 0.00 | 0.05 | 0.05 | 81 | 1008.5 |
| 20260506202113 | 11 | 60 | 0.0 | 0.0 | 0.00 | 0.05 | 0.05 | 80 | 1008.4 |
| 20260506201113 | 11 | 60 | 0.0 | 0.0 | 0.00 | 0.05 | 0.05 | 80 | 1008.2 |
| 20260506200112 | 11 | 60 | 0.0 | 0.0 | 0.00 | 0.05 | 0.05 | 80 | 1008.2 |
| 20260506195113 | 11 | 60 | 0.0 | 0.0 | 0.00 | 0.05 | 0.05 | 79 | 1008.2 |
| 20260506194112 | 11 | 60 | 0.0 | 0.0 | 0.00 | 0.05 | 0.05 | 79 | 1008.1 |
| 20260506193112 | 11 | 60 | 0.0 | 0.0 | 0.00 | 0.05 | 0.05 | 78 | 1007.9 |
| 20260506192112 | 11 | 60 | 0.0 | 0.0 | 0.00 | 0.05 | 0.05 | 78 | 1007.8 |
| 20260506191112 | 11 | 60 | 0.0 | 0.0 | 0.00 | 0.05 | 0.05 | 78 | 1007.8 |
| 20260506190112 | 11 | 61 | 0.0 | 0.0 | 0.00 | 0.05 | 0.05 | 78 | 1007.6 |
| 20260506185112 | 11 | 60 | 0.0 | 1.6 | 0.00 | 0.05 | 0.05 | 78 | 1007.4 |
| 20260506184112 | 12 | 60 | 0.0 | 0.0 | 0.00 | 0.05 | 0.05 | 78 | 1007.2 |
| 20260506183112 | 12 | 60 | 0.0 | 0.0 | 0.00 | 0.05 | 0.05 | 78 | 1007.0 |
| 20260506182112 | 12 | 61 | 1.6 | 8.0 | 0.00 | 0.05 | 0.05 | 78 | 1006.9 |
| 20260506181112 | 12 | 60 | 1.6 | 4.8 | 0.00 | 0.05 | 0.05 | 78 | 1006.9 |
| 20260506180112 | 12 | 61 | 3.2 | 6.4 | 0.00 | 0.05 | 0.05 | 78 | 1006.7 |
| 20260506175111 | 12 | 61 | 3.2 | 8.0 | 0.00 | 0.05 | 0.05 | 78 | 1006.6 |
| 20260506174111 | 12 | 61 | 1.6 | 6.4 | 0.00 | 0.05 | 0.05 | 77 | 1006.7 |
| 20260506173112 | 12 | 61 | 4.8 | 9.7 | 0.00 | 0.05 | 0.05 | 77 | 1006.6 |
| 20260506172111 | 12 | 43 | 3.2 | 12.9 | 0.00 | 0.05 | 0.05 | 78 | 1006.4 |
| 20260506171111 | 12 | 46 | 6.4 | 12.9 | 0.00 | 0.05 | 0.05 | 78 | 1006.3 |
| 20260506170111 | 12 | 51 | 8.0 | 17.7 | 0.00 | 0.05 | 0.05 | 78 | 1006.2 |
| 20260506165111 | 12 | 49 | 4.8 | 11.3 | 0.00 | 0.05 | 0.05 | 78 | 1006.0 |
| 20260506164111 | 12 | 58 | 1.6 | 4.8 | 0.00 | 0.05 | 0.05 | 79 | 1005.9 |
| 20260506163111 | 12 | 59 | 3.2 | 8.0 | 0.00 | 0.05 | 0.05 | 79 | 1005.7 |
| 20260506162111 | 12 | 65 | 1.6 | 6.4 | 0.00 | 0.05 | 0.05 | 78 | 1005.5 |
| 20260506161111 | 12 | 65 | 0.0 | 3.2 | 0.05 | 0.05 | 0.05 | 78 | 1005.5 |
| 20260506160111 | 12 | 65 | 3.2 | 11.3 | 0.05 | 0.05 | 0.05 | 78 | 1005.5 |
| 20260506155111 | 12 | 59 | 4.8 | 11.3 | 0.05 | 0.05 | 0.05 | 77 | 1005.7 |
| 20260506154111 | 12 | 46 | 8.0 | 14.5 | 0.05 | 0.05 | 0.05 | 76 | 1005.8 |
| 20260506153110 | 12 | 212 | 4.8 | 9.7 | 0.05 | 0.05 | 0.05 | 73 | 1006.1 |
| 20260506152110 | 13 | 213 | 3.2 | 8.0 | 0.05 | 0.05 | 0.05 | 70 | 1006.0 |
| 20260506151115 | 13 | 246 | 8.0 | 22.5 | 0.03 | 0.03 | 0.03 | 66 | 1006.2 |
| 20260506150115 | 14 | 190 | 16.1 | 37.0 | 0.00 | 0.00 | 0.00 | 59 | 1005.6 |
| 20260506145115 | 15 | 219 | 12.9 | 37.0 | 0.00 | 0.00 | 0.00 | 56 | 1005.0 |
| 20260506144115 | 16 | 204 | 12.9 | 40.2 | 0.00 | 0.00 | 0.00 | 58 | 1004.1 |
| 20260506143115 | 16 | 220 | 11.3 | 30.6 | 0.00 | 0.00 | 0.00 | 54 | 1004.0 |
| 20260506142115 | 17 | 210 | 9.7 | 32.2 | 0.00 | 0.00 | 0.00 | 53 | 1003.7 |
| 20260506141115 | 18 | 5 | 4.8 | 12.9 | 0.00 | 0.00 | 0.00 | 54 | 1003.4 |
| 20260506140115 | 18 | 15 | 14.5 | 29.0 | 0.00 | 0.00 | 0.00 | 57 | 1003.0 |
| 20260506135115 | 18 | 22 | 11.3 | 22.5 | 0.00 | 0.00 | 0.00 | 60 | 1003.1 |
| 20260506134115 | 18 | 343 | 8.0 | 19.3 | 0.00 | 0.00 | 0.00 | 59 | 1003.1 |
| 20260506133115 | 19 | 355 | 6.4 | 16.1 | 0.00 | 0.00 | 0.00 | 59 | 1002.8 |
| 20260506132115 | 19 | 348 | 4.8 | 11.3 | 0.00 | 0.00 | 0.00 | 56 | 1002.8 |
| 20260506131115 | 19 | 334 | 4.8 | 11.3 | 0.00 | 0.00 | 0.00 | 57 | 1002.8 |
| 20260506130114 | 19 | 341 | 3.2 | 8.0 | 0.00 | 0.00 | 0.00 | 58 | 1002.7 |
| 20260506125115 | 18 | 57 | 1.6 | 8.0 | 0.00 | 0.00 | 0.00 | 59 | 1002.7 |
| 20260506124114 | 18 | 73 | 3.2 | 11.3 | 0.00 | 0.00 | 0.00 | 61 | 1002.7 |
| 20260506123114 | 17 | 51 | 1.6 | 9.7 | 0.00 | 0.00 | 0.00 | 62 | 1002.9 |
| 20260506122114 | 17 | 26 | 3.2 | 9.7 | 0.00 | 0.00 | 0.00 | 64 | 1002.8 |
| 20260506121114 | 16 | 24 | 3.2 | 8.0 | 0.00 | 0.00 | 0.00 | 69 | 1002.8 |
| 20260506120114 | 16 | 22 | 4.8 | 9.7 | 0.00 | 0.00 | 0.00 | 67 | 1003.0 |
| 20260506115114 | 16 | 15 | 3.2 | 8.0 | 0.00 | 0.00 | 0.00 | 67 | 1003.3 |
| 20260506114114 | 16 | 15 | 3.2 | 6.4 | 0.00 | 0.00 | 0.00 | 67 | 1003.2 |
| 20260506113114 | 16 | 16 | 3.2 | 6.4 | 0.00 | 0.00 | 0.00 | 66 | 1003.2 |
| 20260506112114 | 16 | 15 | 3.2 | 9.7 | 0.00 | 0.00 | 0.00 | 66 | 1003.0 |
| 20260506111114 | 16 | 9 | 6.4 | 14.5 | 0.00 | 0.00 | 0.00 | 66 | 1002.9 |
| 20260506110114 | 16 | 5 | 4.8 | 9.7 | 0.00 | 0.00 | 0.00 | 65 | 1002.9 |
| 20260506105114 | 16 | 360 | 4.8 | 11.3 | 0.00 | 0.00 | 0.00 | 66 | 1002.8 |
| 20260506104113 | 16 | 19 | 4.8 | 14.5 | 0.00 | 0.00 | 0.00 | 67 | 1003.0 |
| 20260506103114 | 16 | 355 | 3.2 | 11.3 | 0.00 | 0.00 | 0.00 | 67 | 1003.0 |
| 20260506102114 | 16 | 5 | 3.2 | 9.7 | 0.00 | 0.00 | 0.00 | 67 | 1003.1 |
| 20260506101114 | 16 | 17 | 6.4 | 12.9 | 0.00 | 0.00 | 0.00 | 66 | 1003.1 |
| 20260506100114 | 16 | 20 | 4.8 | 11.3 | 0.00 | 0.00 | 0.00 | 63 | 1003.3 |
| 20260506095114 | 16 | 9 | 4.8 | 11.3 | 0.00 | 0.00 | 0.00 | 64 | 1003.6 |
| 20260506094113 | 16 | 350 | 3.2 | 9.7 | 0.00 | 0.00 | 0.00 | 66 | 1003.5 |
| 20260506093113 | 16 | 21 | 4.8 | 11.3 | 0.00 | 0.00 | 0.00 | 66 | 1003.4 |
| 20260506092113 | 17 | 360 | 4.8 | 11.3 | 0.00 | 0.00 | 0.00 | 65 | 1003.5 |
| 20260506091114 | 16 | 350 | 4.8 | 9.7 | 0.00 | 0.00 | 0.00 | 69 | 1003.3 |
| 20260506090113 | 15 | 254 | 4.8 | 8.0 | 0.00 | 0.00 | 0.00 | 71 | 1003.5 |
| 20260506085113 | 15 | 248 | 3.2 | 9.7 | 0.00 | 0.00 | 0.00 | 70 | 1003.5 |
| 20260506084113 | 15 | 217 | 1.6 | 8.0 | 0.00 | 0.00 | 0.00 | 74 | 1003.6 |
| 20260506083113 | 14 | 216 | 3.2 | 6.4 | 0.00 | 0.00 | 0.00 | 75 | 1003.4 |
| 20260506082113 | 13 | 216 | 0.0 | 3.2 | 0.00 | 0.00 | 0.00 | 77 | 1003.7 |
| 20260506081113 | 13 | 216 | 1.6 | 4.8 | 0.00 | 0.00 | 0.00 | 78 | 1003.6 |
| 20260506080113 | 13 | 216 | 0.0 | 1.6 | 0.00 | 0.00 | 0.00 | 79 | 1003.8 |
| 20260506073112 | 12 | 216 | 0.0 | 0.0 | 0.00 | 0.00 | 0.00 | 81 | 1003.6 |
| 20260506072112 | 12 | 216 | 0.0 | 3.2 | 0.00 | 0.00 | 0.00 | 82 | 1003.7 |
| 20260506071112 | 12 | 216 | 0.0 | 4.8 | 0.00 | 0.00 | 0.00 | 83 | 1003.5 |
| 20260506070112 | 12 | 216 | 0.0 | 0.0 | 0.00 | 0.00 | 0.00 | 83 | 1003.8 |
| 20260506062112 | 11 | 216 | 0.0 | 0.0 | 0.00 | 0.00 | 0.00 | 83 | 1003.8 |
| 20260506061112 | 11 | 216 | 0.0 | 0.0 | 0.00 | 0.00 | 0.00 | 83 | 1004.0 |
| 20260506060112 | 11 | 216 | 0.0 | 0.0 | 0.00 | 0.00 | 0.00 | 83 | 1003.9 |
| 20260506051111 | 10 | 216 | 0.0 | 0.0 | 0.00 | 0.00 | 0.00 | 81 | 1004.0 |
| 20260506050112 | 10 | 216 | 0.0 | 0.0 | 0.00 | 0.00 | 0.00 | 81 | 1004.1 |
| 20260506045112 | 10 | 216 | 0.0 | 0.0 | 0.00 | 0.00 | 0.00 | 81 | 1004.1 |
| 20260506044111 | 10 | 216 | 0.0 | 0.0 | 0.00 | 0.00 | 0.00 | 80 | 1004.2 |
| 20260506043111 | 10 | 216 | 0.0 | 0.0 | 0.00 | 0.00 | 0.00 | 80 | 1004.4 |
| 20260506042111 | 10 | 216 | 0.0 | 0.0 | 0.00 | 0.00 | 0.00 | 80 | 1004.5 |
| 20260506041111 | 10 | 216 | 0.0 | 0.0 | 0.00 | 0.00 | 0.00 | 80 | 1004.5 |
| 20260506040111 | 10 | 216 | 0.0 | 0.0 | 0.00 | 0.00 | 0.00 | 80 | 1004.6 |
| 20260506035111 | 10 | 216 | 0.0 | 0.0 | 0.00 | 0.00 | 0.00 | 80 | 1004.9 |
| 20260506034111 | 10 | 216 | 0.0 | 0.0 | 0.00 | 0.00 | 0.00 | 80 | 1005.0 |
| 20260506033111 | 11 | 216 | 0.0 | 0.0 | 0.00 | 0.00 | 0.00 | 80 | 1005.1 |
| 20260506032111 | 11 | 216 | 0.0 | 0.0 | 0.00 | 0.00 | 0.00 | 80 | 1005.2 |
| 20260506031111 | 11 | 216 | 1.6 | 4.8 | 0.00 | 0.00 | 0.00 | 80 | 1005.2 |
| 20260506030111 | 11 | 216 | 1.6 | 4.8 | 0.00 | 0.00 | 0.00 | 80 | 1005.2 |
| 20260506025112 | 11 | 216 | 1.6 | 6.4 | 0.00 | 0.00 | 0.00 | 80 | 1005.4 |
| 20260506024111 | 11 | 216 | 3.2 | 6.4 | 0.00 | 0.00 | 0.00 | 80 | 1005.6 |
| 20260506023111 | 11 | 216 | 0.0 | 3.2 | 0.00 | 0.00 | 0.00 | 80 | 1005.8 |
| 20260506022111 | 11 | 216 | 0.0 | 0.0 | 0.00 | 0.00 | 0.00 | 80 | 1005.9 |
| 20260506021111 | 11 | 216 | 0.0 | 3.2 | 0.00 | 0.00 | 0.00 | 80 | 1005.8 |
| 20260506020111 | 11 | 216 | 3.2 | 6.4 | 0.00 | 0.00 | 0.00 | 81 | 1005.9 |
| 20260506015110 | 11 | 216 | 1.6 | 6.4 | 0.00 | 0.00 | 0.00 | 81 | 1005.9 |
| 20260506014110 | 11 | 216 | 4.8 | 9.7 | 0.00 | 0.00 | 0.00 | 81 | 1006.0 |
| 20260506013110 | 11 | 216 | 3.2 | 8.0 | 0.00 | 0.00 | 0.00 | 81 | 1006.2 |
| 20260506012110 | 11 | 216 | 3.2 | 8.0 | 0.00 | 0.00 | 0.00 | 81 | 1006.2 |
| 20260506011110 | 10 | 216 | 3.2 | 9.7 | 0.00 | 0.00 | 0.00 | 80 | 1006.2 |
| 20260506010110 | 10 | 216 | 4.8 | 9.7 | 0.00 | 0.00 | 0.00 | 80 | 1006.4 |
| 20260506005110 | 10 | 216 | 6.4 | 9.7 | 0.00 | 0.00 | 0.00 | 79 | 1006.3 |
| 20260506004111 | 10 | 216 | 3.2 | 8.0 | 0.00 | 0.00 | 0.00 | 79 | 1006.2 |
| 20260506003110 | 10 | 216 | 1.6 | 3.2 | 0.00 | 0.00 | 0.00 | 78 | 1006.5 |
| 20260506002110 | 10 | 216 | 0.0 | 3.2 | 0.00 | 0.00 | 0.00 | 78 | 1006.6 |
| 20260506001110 | 10 | 216 | 1.6 | 6.4 | 0.00 | 0.00 | 0.00 | 77 | 1006.9 |
| 20260506000110 | 10 | 216 | 0.0 | 0.0 | 0.00 | 0.00 | 0.00 | 76 | 1006.9 |
| 20260505235110 | 11 | 216 | 0.0 | 0.0 | 0.00 | 0.00 | 0.00 | 76 | 1006.8 |
| 20260505234110 | 11 | 216 | 0.0 | 0.0 | 0.00 | 0.00 | 0.00 | 75 | 1006.6 |